• In Austria
  • List of Countries
  • For 7 days
  • Water Temperature
  • Satellite Maps
  • Weather Map
  • News
  • Weather Widgets
  • user-avatar
    Login

    Hourly Weather Tibissa

    Today, 22 February, Thursday

    Time Temperature Precipitation Wind Pressure Humidity
    00:00 +5°C° 0 mm 4 mps 673 mmHg 82%
    01:00 +5°C° 0 mm 3 mps 672 mmHg 84%
    02:00 +5°C° 0.2 mm 3 mps 672 mmHg 84%
    03:00 +5°C° 0.2 mm 3 mps 672 mmHg 85%
    04:00 +5°C° 0.2 mm 3 mps 672 mmHg 85%
    05:00 +4°C° 0.5 mm 3 mps 672 mmHg 87%
    06:00 +4°C° 0.5 mm 3 mps 672 mmHg 88%
    07:00 +4°C° 0.5 mm 3 mps 672 mmHg 89%
    08:00 +4°C° 0.5 mm 4 mps 672 mmHg 84%
    09:00 +3°C° 0.5 mm 5 mps 672 mmHg 79%
    10:00 +3°C° 0.5 mm 5 mps 673 mmHg 74%
    11:00 +3°C° 0.1 mm 5 mps 673 mmHg 69%
    12:00 +5°C° 0.1 mm 5 mps 673 mmHg 64%
    13:00 +5°C° 0.1 mm 6 mps 673 mmHg 59%
    14:00 +6°C° 0 mm 5 mps 673 mmHg 58%
    15:00 +6°C° 0 mm 5 mps 673 mmHg 56%
    16:00 +6°C° 0 mm 5 mps 673 mmHg 54%
    17:00 +5°C° 0.1 mm 5 mps 673 mmHg 59%
    18:00 +5°C° 0.1 mm 5 mps 673 mmHg 64%
    19:00 +3°C° 0.1 mm 5 mps 673 mmHg 69%
    20:00 +2°C° 0.1 mm 6 mps 674 mmHg 72%
    21:00 +2°C° 0.1 mm 6 mps 674 mmHg 75%
    22:00 +1°C° 0.1 mm 6 mps 674 mmHg 78%
    23:00 +1°C° 0 mm 6 mps 674 mmHg 80%

    Tomorrow, 23 February, Friday

    Time Temperature Precipitation Wind Pressure Humidity
    00:00 +1°C° 0 mm 6 mps 674 mmHg 81%
    01:00 0°C° 0 mm 5 mps 674 mmHg 82%
    02:00 0°C° 0 mm 5 mps 674 mmHg 82%
    03:00 0°C° 0 mm 5 mps 674 mmHg 82%
    04:00 -1°C° 0 mm 5 mps 674 mmHg 82%
    05:00 -1°C° 0 mm 4 mps 674 mmHg 82%
    06:00 -1°C° 0 mm 4 mps 674 mmHg 82%
    07:00 -2°C° 0 mm 4 mps 674 mmHg 82%
    08:00 0°C° 0 mm 4 mps 675 mmHg 73%
    09:00 +1°C° 0 mm 4 mps 675 mmHg 65%
    10:00 +2°C° 0 mm 5 mps 676 mmHg 56%
    11:00 +3°C° 0 mm 5 mps 676 mmHg 50%
    12:00 +5°C° 0 mm 5 mps 676 mmHg 45%
    13:00 +7°C° 0 mm 5 mps 676 mmHg 40%
    14:00 +7°C° 0 mm 5 mps 676 mmHg 38%
    15:00 +7°C° 0 mm 5 mps 676 mmHg 36%
    16:00 +8°C° 0 mm 5 mps 676 mmHg 35%
    17:00 +7°C° 0 mm 4 mps 676 mmHg 40%
    18:00 +7°C° 0 mm 3 mps 676 mmHg 46%
    19:00 +5°C° 0 mm 3 mps 677 mmHg 52%
    20:00 +5°C° 0 mm 2 mps 677 mmHg 56%
    21:00 +5°C° 0 mm 2 mps 677 mmHg 60%
    22:00 +4°C° 0 mm 2 mps 678 mmHg 64%
    23:00 +4°C° 0 mm 2 mps 678 mmHg 66%

    Day after tomorrow, 24 February, Saturday

    Time Temperature Precipitation Wind Pressure Humidity
    00:00 +4°C° 0 mm 2 mps 678 mmHg 67%
    01:00 +3°C° 0 mm 2 mps 678 mmHg 68%
    02:00 +3°C° 0 mm 2 mps 678 mmHg 68%
    03:00 +4°C° 0 mm 2 mps 678 mmHg 67%
    04:00 +4°C° 0 mm 2 mps 677 mmHg 66%
    05:00 +4°C° 0 mm 2 mps 678 mmHg 65%
    06:00 +4°C° 0 mm 2 mps 678 mmHg 64%
    07:00 +4°C° 0 mm 2 mps 678 mmHg 62%
    08:00 +5°C° 0 mm 3 mps 678 mmHg 55%
    09:00 +7°C° 0 mm 5 mps 679 mmHg 47%
    10:00 +8°C° 0 mm 6 mps 679 mmHg 40%
    11:00 +10°C° 0 mm 7 mps 679 mmHg 37%
    12:00 +11°C° 0 mm 8 mps 679 mmHg 34%
    13:00 +12°C° 0 mm 9 mps 679 mmHg 32%
    14:00 +12°C° 0 mm 8 mps 678 mmHg 32%
    15:00 +12°C° 0 mm 8 mps 678 mmHg 33%
    16:00 +12°C° 0 mm 7 mps 677 mmHg 34%
    17:00 +11°C° 0 mm 6 mps 677 mmHg 37%
    18:00 +11°C° 0 mm 4 mps 677 mmHg 40%
    19:00 +10°C° 0 mm 3 mps 677 mmHg 44%
    20:00 +9°C° 0 mm 3 mps 677 mmHg 45%
    21:00 +9°C° 0 mm 2 mps 677 mmHg 45%
    22:00 +9°C° 0 mm 2 mps 677 mmHg 46%
    23:00 +9°C° 0 mm 2 mps 677 mmHg 47%

    25 February, Sunday

    Time Temperature Precipitation Wind Pressure Humidity
    00:00 +9°C° 0 mm 3 mps 677 mmHg 49%
    01:00 +8°C° 0 mm 3 mps 676 mmHg 50%
    02:00 +8°C° 0 mm 2 mps 676 mmHg 56%
    03:00 +7°C° 0 mm 2 mps 676 mmHg 61%
    04:00 +6°C° 0 mm 2 mps 675 mmHg 67%
    05:00 +5°C° 0 mm 3 mps 676 mmHg 74%
    06:00 +4°C° 0 mm 3 mps 676 mmHg 81%
    07:00 +4°C° 0 mm 4 mps 676 mmHg 87%
    08:00 +3°C° 0.1 mm 5 mps 677 mmHg 84%
    09:00 +4°C° 0.1 mm 6 mps 677 mmHg 81%
    10:00 +5°C° 0.1 mm 7 mps 678 mmHg 78%
    11:00 +5°C° 0.1 mm 7 mps 678 mmHg 74%
    12:00 +6°C° 0.1 mm 8 mps 678 mmHg 70%
    13:00 +6°C° 0.1 mm 8 mps 678 mmHg 65%
    14:00 +6°C° 0 mm 8 mps 678 mmHg 64%
    15:00 +6°C° 0 mm 8 mps 678 mmHg 63%
    16:00 +5°C° 0 mm 8 mps 678 mmHg 62%
    17:00 +5°C° 0 mm 8 mps 679 mmHg 64%
    18:00 +4°C° 0 mm 8 mps 679 mmHg 66%
    19:00 +3°C° 0 mm 7 mps 679 mmHg 68%
    20:00 +2°C° 0 mm 6 mps 680 mmHg 71%
    21:00 +2°C° 0 mm 6 mps 680 mmHg 73%
    22:00 +1°C° 0 mm 5 mps 680 mmHg 75%
    23:00 +1°C° 0 mm 5 mps 680 mmHg 74%

    26 February, Monday

    Time Temperature Precipitation Wind Pressure Humidity
    00:00 +1°C° 0 mm 5 mps 680 mmHg 72%
    01:00 +1°C° 0 mm 5 mps 680 mmHg 70%
    02:00 +1°C° 0 mm 5 mps 680 mmHg 69%
    03:00 +1°C° 0 mm 4 mps 680 mmHg 68%
    04:00 0°C° 0 mm 4 mps 679 mmHg 67%
    05:00 0°C° 0 mm 4 mps 679 mmHg 65%
    06:00 +1°C° 0 mm 3 mps 679 mmHg 64%
    07:00 +1°C° 0 mm 3 mps 679 mmHg 62%
    08:00 +3°C° 0 mm 3 mps 680 mmHg 55%
    09:00 +5°C° 0 mm 4 mps 680 mmHg 47%
    10:00 +7°C° 0 mm 4 mps 681 mmHg 40%
    11:00 +9°C° 0 mm 5 mps 681 mmHg 36%
    12:00 +10°C° 0 mm 6 mps 680 mmHg 31%
    13:00 +12°C° 0 mm 7 mps 680 mmHg 27%
    14:00 +12°C° 0 mm 7 mps 680 mmHg 25%
    15:00 +14°C° 0 mm 7 mps 680 mmHg 24%
    16:00 +14°C° 0 mm 7 mps 679 mmHg 22%
    17:00 +13°C° 0 mm 6 mps 679 mmHg 30%
    18:00 +10°C° 0 mm 5 mps 678 mmHg 37%
    19:00 +8°C° 0 mm 4 mps 678 mmHg 45%
    20:00 +8°C° 0 mm 4 mps 678 mmHg 46%
    21:00 +8°C° 0 mm 3 mps 678 mmHg 47%
    22:00 +8°C° 0 mm 3 mps 678 mmHg 49%
    23:00 +8°C° 0 mm 3 mps 677 mmHg 48%

    27 February, Tuesday

    Time Temperature Precipitation Wind Pressure Humidity
    00:00 +7°C° 0 mm 4 mps 677 mmHg 48%
    01:00 +7°C° 0 mm 4 mps 676 mmHg 47%
    02:00 +7°C° 0.1 mm 4 mps 676 mmHg 52%
    03:00 +7°C° 0.1 mm 4 mps 676 mmHg 56%
    04:00 +7°C° 0.1 mm 4 mps 675 mmHg 61%
    05:00 +7°C° 0 mm 4 mps 675 mmHg 67%
    06:00 +8°C° 0 mm 3 mps 675 mmHg 72%
    07:00 +8°C° 0 mm 3 mps 675 mmHg 78%
    08:00 +9°C° 0.1 mm 3 mps 675 mmHg 74%
    09:00 +9°C° 0.1 mm 3 mps 676 mmHg 69%
    10:00 +10°C° 0.1 mm 3 mps 676 mmHg 65%
    11:00 +11°C° 0 mm 3 mps 676 mmHg 60%
    12:00 +12°C° 0 mm 3 mps 676 mmHg 56%
    13:00 +12°C° 0 mm 3 mps 676 mmHg 52%
    14:00 +12°C° 0.2 mm 3 mps 676 mmHg 53%
    15:00 +12°C° 0.2 mm 3 mps 676 mmHg 54%
    16:00 +11°C° 0.2 mm 3 mps 676 mmHg 55%
    17:00 +11°C° 0.4 mm 3 mps 676 mmHg 60%
    18:00 +10°C° 0.4 mm 3 mps 676 mmHg 66%
    19:00 +9°C° 0.4 mm 3 mps 677 mmHg 71%
    20:00 +8°C° 0.1 mm 3 mps 677 mmHg 74%
    21:00 +8°C° 0.1 mm 2 mps 678 mmHg 77%
    22:00 +8°C° 0.1 mm 1 mps 678 mmHg 81%
    23:00 +8°C° 0.1 mm 1 mps 678 mmHg 82%
    Show more